sat.trackr.live / text

‹ back to catalog

ONEWEB-0277

NORAD 48995 · 2021-060AE

PAYLOAD ACTIVE UNKNOWN

§ Identity

Operator
Country
UK
Launch date
2021-07-01
Launch site
VOSTO
Launch vehicle
Mass (kg)
RCS (m²)

Purposes: comms

External: N2YO · Heavens-Above · Gunter

§ Orbital elements

Epoch: 2026-09-14T21:01:05.522304Z

Period
109.37 min
Inclination
87.9142°
Eccentricity
0.0002070
Mean motion
13.16595472 rev/d
Perigee alt
1,196.2 km
Apogee alt
1,199.3 km
Semi-major
7,575.9 km
B*
5.8625e-5
RAAN
210.9708°
Arg perigee
73.9629°
Mean anomaly
286.1730°
Rev number
25,136

§ Raw data

ONEWEB-02771 48995U 21060AE  26257.87575836  .00000035  00000+0  58625-4 0  99922 48995  87.9142 210.9708 0002070  73.9629 286.1730 13.16595472251367

JSON: /api/v1/satellites/48995 · /tle

For live sub-satellite position, see the globe view (requires WebGL).

§ Visibility from observer

Set your observer location to see the next 7 days of passes ≥ 10°. The values pass through the URL so the page stays shareable.

No JS? Fill the form by hand. The geolocation button needs JavaScript.